When you browse on this site, cookies collect data to enhance your experience and personalize the content and advertising you see.
Visit our Privacy Policy to learn more. By continuing to use the site, you agree to this use of cookies and data.
  • en France
  • Liste des pays
  • À 7 jours
  • Température de l'eau
  • Carte météo
  • Widgets météo
  • user-avatar
    Se connecter

    Météo par heure à Dijon

    Ce jour, 19 Août, Lundi

    Heure Température Précipitation Vent Pression Humidité
    00:00 +17°C° 0 mm 2 m/s 736 mmHg 92%
    01:00 +17°C° 0.1 mm 2 m/s 737 mmHg 92%
    02:00 +16°C° 0.1 mm 2 m/s 737 mmHg 92%
    03:00 +16°C° 0.1 mm 2 m/s 737 mmHg 93%
    04:00 +16°C° 0 mm 2 m/s 737 mmHg 93%
    05:00 +16°C° 0 mm 2 m/s 737 mmHg 93%
    06:00 +16°C° 0 mm 2 m/s 738 mmHg 93%
    07:00 +18°C° 0 mm 2 m/s 738 mmHg 83%
    08:00 +19°C° 0 mm 3 m/s 738 mmHg 74%
    09:00 +20°C° 0 mm 3 m/s 739 mmHg 65%
    10:00 +22°C° 0 mm 3 m/s 739 mmHg 56%
    11:00 +24°C° 0 mm 3 m/s 739 mmHg 48%
    12:00 +25°C° 0 mm 3 m/s 739 mmHg 39%
    13:00 +25°C° 0 mm 3 m/s 739 mmHg 40%
    14:00 +25°C° 0 mm 3 m/s 739 mmHg 40%
    15:00 +25°C° 0 mm 3 m/s 739 mmHg 40%
    16:00 +24°C° 0 mm 2 m/s 739 mmHg 47%
    17:00 +23°C° 0 mm 2 m/s 739 mmHg 54%
    18:00 +21°C° 0 mm 1 m/s 739 mmHg 61%
    19:00 +20°C° 0 mm 1 m/s 739 mmHg 64%
    20:00 +18°C° 0 mm 1 m/s 739 mmHg 66%
    21:00 +16°C° 0 mm 1 m/s 740 mmHg 69%
    22:00 +15°C° 0 mm 1 m/s 740 mmHg 70%
    23:00 +15°C° 0 mm 1 m/s 740 mmHg 71%

    Demain, 20 Août, Mardi

    Heure Température Précipitation Vent Pression Humidité
    00:00 +15°C° 0 mm 1 m/s 740 mmHg 72%
    01:00 +15°C° 0 mm 1 m/s 740 mmHg 71%
    02:00 +15°C° 0 mm 1 m/s 740 mmHg 70%
    03:00 +15°C° 0 mm 1 m/s 740 mmHg 69%
    04:00 +15°C° 0 mm 1 m/s 740 mmHg 69%
    05:00 +16°C° 0 mm 1 m/s 740 mmHg 68%
    06:00 +16°C° 0 mm 1 m/s 740 mmHg 68%
    07:00 +18°C° 0 mm 1 m/s 741 mmHg 65%
    08:00 +19°C° 0 mm 1 m/s 741 mmHg 62%
    09:00 +19°C° 0 mm 2 m/s 741 mmHg 59%
    10:00 +19°C° 0.2 mm 2 m/s 742 mmHg 62%
    11:00 +19°C° 0.2 mm 2 m/s 742 mmHg 65%
    12:00 +19°C° 0.2 mm 3 m/s 743 mmHg 68%
    13:00 +19°C° 0.3 mm 3 m/s 743 mmHg 71%
    14:00 +18°C° 0.3 mm 3 m/s 743 mmHg 74%
    15:00 +18°C° 0.3 mm 2 m/s 743 mmHg 78%
    16:00 +17°C° 0.1 mm 2 m/s 743 mmHg 80%
    17:00 +17°C° 0.1 mm 2 m/s 743 mmHg 81%
    18:00 +16°C° 0.1 mm 2 m/s 743 mmHg 83%
    19:00 +15°C° 0 mm 1 m/s 743 mmHg 86%
    20:00 +14°C° 0 mm 1 m/s 744 mmHg 90%
    21:00 +13°C° 0 mm 1 m/s 744 mmHg 93%
    22:00 +13°C° 0 mm 1 m/s 744 mmHg 93%
    23:00 +13°C° 0 mm 1 m/s 744 mmHg 92%

    Après-demain, 21 Août, Mercredi

    Heure Température Précipitation Vent Pression Humidité
    00:00 +12°C° 0 mm 1 m/s 744 mmHg 92%
    01:00 +12°C° 0 mm 1 m/s 744 mmHg 92%
    02:00 +12°C° 0 mm 1 m/s 744 mmHg 93%
    03:00 +11°C° 0 mm 1 m/s 743 mmHg 93%
    04:00 +12°C° 0 mm 2 m/s 743 mmHg 92%
    05:00 +12°C° 0 mm 2 m/s 743 mmHg 91%
    06:00 +13°C° 0 mm 2 m/s 743 mmHg 90%
    07:00 +14°C° 0 mm 3 m/s 743 mmHg 80%
    08:00 +17°C° 0 mm 4 m/s 743 mmHg 71%
    09:00 +19°C° 0 mm 5 m/s 743 mmHg 61%
    10:00 +20°C° 0 mm 5 m/s 743 mmHg 56%
    11:00 +22°C° 0 mm 5 m/s 743 mmHg 51%
    12:00 +23°C° 0 mm 5 m/s 742 mmHg 47%
    13:00 +23°C° 0 mm 5 m/s 742 mmHg 46%
    14:00 +25°C° 0 mm 5 m/s 742 mmHg 46%
    15:00 +25°C° 0 mm 4 m/s 741 mmHg 45%
    16:00 +23°C° 0 mm 4 m/s 741 mmHg 51%
    17:00 +21°C° 0 mm 3 m/s 741 mmHg 57%
    18:00 +20°C° 0 mm 3 m/s 741 mmHg 63%
    19:00 +18°C° 0 mm 2 m/s 741 mmHg 70%
    20:00 +17°C° 0 mm 2 m/s 741 mmHg 77%
    21:00 +15°C° 0 mm 2 m/s 741 mmHg 83%
    22:00 +15°C° 0 mm 2 m/s 741 mmHg 85%
    23:00 +14°C° 0 mm 2 m/s 741 mmHg 87%

    22 Août, Jeudi

    Heure Température Précipitation Vent Pression Humidité
    00:00 +14°C° 0 mm 2 m/s 741 mmHg 88%
    01:00 +14°C° 0 mm 2 m/s 741 mmHg 89%
    02:00 +13°C° 0 mm 2 m/s 741 mmHg 90%
    03:00 +13°C° 0 mm 2 m/s 741 mmHg 91%
    04:00 +13°C° 0 mm 2 m/s 741 mmHg 89%
    05:00 +14°C° 0 mm 2 m/s 741 mmHg 86%
    06:00 +14°C° 0 mm 2 m/s 742 mmHg 84%
    07:00 +17°C° 0 mm 2 m/s 742 mmHg 76%
    08:00 +19°C° 0 mm 2 m/s 742 mmHg 67%
    09:00 +21°C° 0 mm 3 m/s 742 mmHg 58%
    10:00 +22°C° 0 mm 3 m/s 742 mmHg 53%
    11:00 +25°C° 0 mm 3 m/s 742 mmHg 47%
    12:00 +26°C° 0 mm 3 m/s 742 mmHg 41%
    13:00 +27°C° 0 mm 3 m/s 742 mmHg 40%
    14:00 +27°C° 0 mm 3 m/s 742 mmHg 39%
    15:00 +28°C° 0 mm 3 m/s 742 mmHg 38%
    16:00 +26°C° 0 mm 3 m/s 741 mmHg 45%
    17:00 +25°C° 0 mm 3 m/s 741 mmHg 52%
    18:00 +22°C° 0 mm 3 m/s 741 mmHg 60%
    19:00 +20°C° 0 mm 3 m/s 742 mmHg 66%
    20:00 +19°C° 0 mm 3 m/s 742 mmHg 72%
    21:00 +17°C° 0 mm 3 m/s 742 mmHg 78%
    22:00 +16°C° 0 mm 3 m/s 742 mmHg 83%
    23:00 +16°C° 0 mm 2 m/s 742 mmHg 88%

    23 Août, Vendredi

    Heure Température Précipitation Vent Pression Humidité
    00:00 +15°C° 0 mm 2 m/s 741 mmHg 93%
    01:00 +15°C° 0 mm 2 m/s 741 mmHg 93%
    02:00 +15°C° 0 mm 2 m/s 741 mmHg 94%
    03:00 +15°C° 0 mm 2 m/s 741 mmHg 94%
    04:00 +15°C° 0 mm 2 m/s 741 mmHg 93%
    05:00 +15°C° 0 mm 2 m/s 741 mmHg 91%
    06:00 +16°C° 0 mm 2 m/s 741 mmHg 90%
    07:00 +18°C° 0 mm 3 m/s 741 mmHg 79%
    08:00 +20°C° 0 mm 3 m/s 741 mmHg 69%
    09:00 +24°C° 0 mm 3 m/s 741 mmHg 59%
    10:00 +25°C° 0 mm 3 m/s 741 mmHg 54%
    11:00 +26°C° 0 mm 3 m/s 740 mmHg 49%
    12:00 +28°C° 0 mm 3 m/s 740 mmHg 44%
    13:00 +28°C° 0 mm 3 m/s 740 mmHg 43%
    14:00 +29°C° 0 mm 3 m/s 739 mmHg 41%
    15:00 +29°C° 0 mm 3 m/s 739 mmHg 39%
    16:00 +28°C° 0 mm 2 m/s 739 mmHg 47%
    17:00 +26°C° 0 mm 2 m/s 739 mmHg 54%
    18:00 +24°C° 0 mm 2 m/s 739 mmHg 61%
    19:00 +23°C° 0 mm 2 m/s 739 mmHg 70%
    20:00 +20°C° 0 mm 2 m/s 738 mmHg 78%
    21:00 +19°C° 0 mm 1 m/s 738 mmHg 87%
    22:00 +19°C° 0 mm 1 m/s 738 mmHg 88%
    23:00 +19°C° 0 mm 1 m/s 738 mmHg 90%

    24 Août, Samedi

    Heure Température Précipitation Vent Pression Humidité
    00:00 +18°C° 0 mm 1 m/s 738 mmHg 92%
    01:00 +18°C° 0 mm 1 m/s 738 mmHg 93%
    02:00 +16°C° 0 mm 1 m/s 737 mmHg 94%
    03:00 +16°C° 0 mm 1 m/s 737 mmHg 95%
    04:00 +15°C° 0 mm 0 m/s 737 mmHg 94%
    05:00 +16°C° 0 mm 0 m/s 737 mmHg 94%
    06:00 +16°C° 0 mm 0 m/s 737 mmHg 93%
    07:00 +21°C° 0 mm 1 m/s 737 mmHg 82%
    08:00 +23°C° 0 mm 1 m/s 737 mmHg 72%
    09:00 +26°C° 0 mm 1 m/s 737 mmHg 61%
    10:00 +27°C° 0 mm 1 m/s 737 mmHg 53%
    11:00 +29°C° 0 mm 2 m/s 737 mmHg 44%
    12:00 +30°C° 0 mm 2 m/s 737 mmHg 36%
    13:00 +31°C° 0 mm 2 m/s 736 mmHg 34%
    14:00 +32°C° 0 mm 2 m/s 736 mmHg 32%
    15:00 +32°C° 0 mm 2 m/s 736 mmHg 30%
    16:00 +30°C° 0 mm 2 m/s 736 mmHg 36%
    17:00 +28°C° 0 mm 2 m/s 736 mmHg 43%
    18:00 +26°C° 0 mm 2 m/s 735 mmHg 49%
    19:00 +25°C° 0 mm 1 m/s 735 mmHg 54%
    20:00 +23°C° 0 mm 1 m/s 736 mmHg 58%
    21:00 +21°C° 0 mm 1 m/s 736 mmHg 63%
    22:00 +20°C° 0 mm 1 m/s 736 mmHg 66%
    23:00 +20°C° 0 mm 1 m/s 736 mmHg 68%
    Voir plus